Linton Municipal Airport, ND

2:35 AM CDT on May 01, 2017 (GMT -0500)
Linton Municipal Airport

Weather History for K7L2 - April, 2014

Change the Weather History Date:

Thursday, April 10, 2014

  Actual Average (KBIS) Record (KBIS)
Temperature  
Mean Temperature 43 °F -  
Max Temperature 60 °F 52 °F 84 °F (1910)
Min Temperature 26 °F 29 °F 9 °F (1973)
Degree Days  
Heating Degree Days 22    
Moisture  
Dew Point 28 °F    
Average Humidity 61    
Maximum Humidity 100    
Minimum Humidity 23    
Precipitation  
Precipitation 0.00 in - - ()
Sea Level Pressure  
Sea Level Pressure 29.86 in    
Wind  
Wind Speed 9 mph (West)    
Max Wind Speed 21 mph    
Max Gust Speed 28 mph    
Visibility 10 miles    
Events      
Averages and records for this station are not official NWS values.
T = Trace of Precipitation, MM = Missing Value Source: NWS Daily Summary

Daily Weather History Graph

Daily Weather History Graph

Search for Another Location

Airport or City:

Trip Planner

Search our weather history database for the weather conditions in past years. The results will help you decide how hot, cold, wet, or windy it might be!

Date:

Astronomy

Apr. 10, 2014 Rise Set
Actual Time 7:03 AM CDT 8:21 PM CDT
Civil Twilight 6:32 AM CDT 8:52 PM CDT
Nautical Twilight 5:55 AM CDT 9:30 PM CDT
Astronomical Twilight 5:15 AM CDT 10:10 PM CDT
Moon 3:53 PM CDT (4/10) 4:42 AM CDT (4/10)
Length of Visible Light 14h 20m
Length of Day
13h 18m
Waxing Gibbous, 80% of the Moon is Illuminated
Apr 10
Waxing Gibbous
Apr 15
Full
Apr 22
Last Quarter
Apr 29
New
May 6
First Quarter

Hourly Weather History & Observations

Time (CDT) Temp. Windchill Dew Point Humidity Pressure Visibility Wind Dir Wind Speed Gust Speed Precip Events Conditions
12:15 AM 37.4 °F 32.8 °F 33.8 °F 87% 29.78 in 10.0 mi WNW 5.8 mph - N/A   Clear
12:35 AM 33.8 °F 29.6 °F 32.0 °F 93% 29.79 in 10.0 mi West 4.6 mph - N/A   Clear
12:55 AM 32.0 °F 27.5 °F 32.0 °F 100% 29.79 in 10.0 mi WSW 4.6 mph - N/A   Clear
1:15 AM 32.0 °F 26.4 °F 32.0 °F 100% 29.79 in 10.0 mi SW 5.8 mph - N/A   Clear
1:35 AM 33.8 °F 25.8 °F 33.8 °F 100% 29.80 in 10.0 mi WSW 10.4 mph - N/A   Clear
1:55 AM 32.0 °F 24.2 °F 32.0 °F 100% 29.81 in 10.0 mi WSW 9.2 mph - N/A   Clear
2:15 AM 32.0 °F 26.4 °F 32.0 °F 100% 29.82 in 10.0 mi West 5.8 mph - N/A   Clear
2:35 AM 32.0 °F 26.4 °F 32.0 °F 100% 29.83 in 10.0 mi WSW 5.8 mph - N/A   Clear
2:55 AM 32.0 °F 25.6 °F 32.0 °F 100% 29.83 in 10.0 mi WSW 6.9 mph - N/A   Clear
3:15 AM 30.2 °F 24.3 °F 30.2 °F 100% 29.84 in 10.0 mi WSW 5.8 mph - N/A   Clear
3:35 AM 28.4 °F 22.2 °F 28.4 °F 100% 29.84 in 10.0 mi West 5.8 mph - N/A   Clear
3:55 AM 28.4 °F 21.2 °F 28.4 °F 100% 29.84 in 10.0 mi West 6.9 mph - N/A   Clear
4:15 AM 28.4 °F 21.2 °F 28.4 °F 100% 29.85 in 10.0 mi WSW 6.9 mph - N/A   Clear
4:35 AM 30.2 °F 22.6 °F 30.2 °F 100% 29.85 in 10.0 mi WSW 8.1 mph - N/A   Clear
4:55 AM 30.2 °F 22.6 °F 30.2 °F 100% 29.86 in 10.0 mi West 8.1 mph - N/A   Clear
5:15 AM 28.4 °F 22.2 °F 28.4 °F 100% 29.86 in 10.0 mi WSW 5.8 mph - N/A   Clear
5:35 AM 28.4 °F 23.3 °F 28.4 °F 100% 29.87 in 10.0 mi WSW 4.6 mph - N/A   Clear
5:55 AM 28.4 °F 21.2 °F 28.4 °F 100% 29.87 in 10.0 mi WSW 6.9 mph - N/A   Clear
6:15 AM 26.6 °F 18.2 °F 26.6 °F 100% 29.87 in 10.0 mi WSW 8.1 mph - N/A   Clear
6:35 AM 26.6 °F 18.2 °F 26.6 °F 100% 29.88 in 10.0 mi SW 8.1 mph - N/A   Clear
6:55 AM 26.6 °F 21.2 °F 26.6 °F 100% 29.89 in 10.0 mi WSW 4.6 mph - N/A   Clear
7:15 AM 26.6 °F 19.1 °F 26.6 °F 100% 29.89 in 10.0 mi WSW 6.9 mph - N/A   Clear
7:35 AM 28.4 °F 21.2 °F 28.4 °F 100% 29.89 in 10.0 mi WSW 6.9 mph - N/A   Clear
7:55 AM 30.2 °F 25.4 °F 30.2 °F 100% 29.90 in 10.0 mi WSW 4.6 mph - N/A   Clear
8:15 AM 32.0 °F 28.7 °F 32.0 °F 100% 29.90 in 10.0 mi WSW 3.5 mph - N/A   Clear
8:35 AM 35.6 °F 30.7 °F 32.0 °F 87% 29.91 in 10.0 mi West 5.8 mph - N/A   Clear
8:55 AM 37.4 °F 30.8 °F 32.0 °F 81% 29.91 in 10.0 mi West 9.2 mph - N/A   Clear
9:15 AM 39.2 °F 33.0 °F 30.2 °F 70% 29.91 in 10.0 mi West 9.2 mph - N/A   Clear
9:35 AM 41.0 °F 35.8 °F 30.2 °F 65% 29.91 in 10.0 mi WNW 8.1 mph - N/A   Clear
9:55 AM 44.6 °F 38.8 °F 28.4 °F 53% 29.91 in 10.0 mi WNW 11.5 mph - N/A   Clear
10:15 AM 48.2 °F - 28.4 °F 46% 29.91 in 10.0 mi NW 16.1 mph - N/A   Clear
10:35 AM 48.2 °F - 28.4 °F 46% 29.92 in 10.0 mi WNW 13.8 mph - N/A   Clear
10:55 AM 50.0 °F - 26.6 °F 40% 29.92 in 10.0 mi WNW 16.1 mph 21.9 mph N/A   Clear
11:15 AM 50.0 °F - 24.8 °F 37% 29.92 in 10.0 mi WNW 15.0 mph 20.7 mph N/A   Clear
11:35 AM 51.8 °F - 24.8 °F 35% 29.92 in 10.0 mi NW 15.0 mph 20.7 mph N/A   Clear
11:55 AM 53.6 °F - 24.8 °F 33% 29.92 in 10.0 mi NW 17.3 mph 23.0 mph N/A   Clear
12:15 PM 53.6 °F - 23.0 °F 30% 29.92 in 10.0 mi NW 17.3 mph - N/A   Clear
12:35 PM 55.4 °F - 19.4 °F 25% 29.91 in 10.0 mi NW 19.6 mph 25.3 mph N/A   Clear
12:55 PM 55.4 °F - 19.4 °F 25% 29.91 in 10.0 mi NW 13.8 mph 24.2 mph N/A   Clear
1:15 PM 57.2 °F - 19.4 °F 23% 29.90 in 10.0 mi NW 17.3 mph 25.3 mph N/A   Clear
1:35 PM 57.2 °F - 19.4 °F 23% 29.90 in 10.0 mi WNW 12.7 mph 23.0 mph N/A   Clear
1:55 PM 57.2 °F - 19.4 °F 23% 29.90 in 10.0 mi WNW 15.0 mph 25.3 mph N/A   Clear
2:15 PM 59.0 °F - 21.2 °F 23% 29.89 in 10.0 mi NW 17.3 mph 21.9 mph N/A   Partly Cloudy
2:35 PM 59.0 °F - 21.2 °F 23% 29.88 in 10.0 mi NW 20.7 mph 24.2 mph N/A   Scattered Clouds
2:55 PM 59.0 °F - 21.2 °F 23% 29.88 in 10.0 mi WNW 19.6 mph 25.3 mph N/A   Scattered Clouds
3:15 PM 59.0 °F - 21.2 °F 23% 29.87 in 10.0 mi West 13.8 mph 20.7 mph N/A   Partly Cloudy
3:35 PM 59.0 °F - 23.0 °F 25% 29.87 in 10.0 mi WNW 16.1 mph 27.6 mph N/A   Clear
3:55 PM 60.8 °F - 23.0 °F 23% 29.85 in 10.0 mi WNW 17.3 mph 25.3 mph N/A   Partly Cloudy
4:15 PM 60.8 °F - 23.0 °F 23% 29.85 in 10.0 mi West 16.1 mph 21.9 mph N/A   Partly Cloudy
4:35 PM 59.0 °F - 23.0 °F 25% 29.84 in 10.0 mi West 11.5 mph 23.0 mph N/A   Partly Cloudy
4:55 PM 59.0 °F - 24.8 °F 27% 29.83 in 10.0 mi WNW 15.0 mph - N/A   Scattered Clouds
5:15 PM 59.0 °F - 24.8 °F 27% 29.83 in 10.0 mi West 12.7 mph 17.3 mph N/A   Mostly Cloudy
5:35 PM 60.8 °F - 24.8 °F 25% 29.82 in 10.0 mi West 13.8 mph 20.7 mph N/A   Scattered Clouds
5:55 PM 60.8 °F - 24.8 °F 25% 29.81 in 10.0 mi West 11.5 mph 17.3 mph N/A   Scattered Clouds
6:15 PM 59.0 °F - 26.6 °F 29% 29.81 in 10.0 mi WSW 8.1 mph - N/A   Mostly Cloudy
6:35 PM 57.2 °F - 28.4 °F 33% 29.82 in 10.0 mi WSW 16.1 mph 23.0 mph N/A   Overcast
6:55 PM 55.4 °F - 32.0 °F 41% 29.82 in 10.0 mi West 6.9 mph - N/A   Mostly Cloudy
7:15 PM 55.4 °F - 32.0 °F 41% 29.82 in 10.0 mi North 12.7 mph 16.1 mph N/A   Mostly Cloudy
7:35 PM 55.4 °F - 32.0 °F 41% 29.82 in 10.0 mi Calm Calm - N/A   Mostly Cloudy
7:55 PM 53.6 °F - 32.0 °F 44% 29.82 in 10.0 mi South 4.6 mph - N/A   Mostly Cloudy
8:15 PM 53.6 °F - 32.0 °F 44% 29.81 in 10.0 mi WSW 4.6 mph - N/A   Scattered Clouds
8:35 PM 51.8 °F - 33.8 °F 50% 29.82 in 10.0 mi WSW 5.8 mph - N/A   Mostly Cloudy
8:55 PM 50.0 °F - 32.0 °F 50% 29.84 in 10.0 mi NNE 12.7 mph 18.4 mph N/A   Scattered Clouds
9:15 PM 50.0 °F - 32.0 °F 50% 29.85 in 10.0 mi NNE 8.1 mph - N/A   Partly Cloudy
9:35 PM 50.0 °F - 33.8 °F 54% 29.87 in 10.0 mi NNE 8.1 mph - N/A   Mostly Cloudy
9:55 PM 48.2 °F - 33.8 °F 58% 29.87 in 10.0 mi ESE 9.2 mph - N/A   Mostly Cloudy
10:15 PM 48.2 °F - 33.8 °F 58% 29.87 in 10.0 mi East 6.9 mph - N/A   Mostly Cloudy
10:35 PM 46.4 °F 44.3 °F 33.8 °F 62% 29.88 in 10.0 mi ENE 4.6 mph - N/A   Scattered Clouds
10:55 PM 46.4 °F 42.4 °F 33.8 °F 62% 29.88 in 10.0 mi East 8.1 mph - N/A   Partly Cloudy
11:15 PM 46.4 °F 41.9 °F 32.0 °F 57% 29.87 in 10.0 mi ESE 9.2 mph - N/A   Partly Cloudy
11:35 PM 44.6 °F 40.2 °F 32.0 °F 61% 29.88 in 10.0 mi East 8.1 mph - N/A   Clear
11:55 PM 41.0 °F 35.2 °F 32.0 °F 70% 29.87 in 10.0 mi East 9.2 mph - N/A   Clear